Date String (YYYY-MM-DD hh:mm:ss) UTC,Instrument flags,absolute air pressure of the measurement (hPa),sample flow rate (lpm),inlet stack bypass flow (lpm),air temperature of the measurement (°C),ambient temperature measured by the external sensor (°C),aerosol sample conditioner tube jacket temperature (°C),OPC LED temperature (°C),internal box temperature (°C),relative humidity of the measurement (%),span deviation,mass concentration of particles derived from Lorenz-Mie calculation of OPC scattering (μg/m³),mass concentration of particles derived from Lorenz-Mie calculation of OPC scattering (μg/m³),mass concentration of particles derived from Lorenz-Mie calculation of OPC scattering (μg/m³)
DateTimeUTC,F1_M11,P_M11,Q1_M11,Q2_M11,T1_M11,T2_M11,T3_M11,T4_M11,T5_M11,U1_M11,ZSPAN_M11,X0_M11,X2_M11,X1_M11
2023-06-07 04:00:00,SystemResetWarning,0830.5,4.99,000.00,029.9,028.5,000.0,038.3,031.4,26.1,0000.0,0007.85,0003.68,0003.29
2023-06-07 04:01:00,SystemResetWarning,0830.6,4.98,000.00,029.9,027.2,000.0,038.3,031.4,26.0,0000.0,0007.72,0003.72,0003.30
2023-06-07 04:02:00,SystemResetWarning,0830.6,5.00,000.00,029.9,025.3,000.0,038.2,031.3,26.1,0000.0,0007.26,0003.75,0003.31
2023-06-07 04:03:00,SystemResetWarning,0830.5,5.01,000.00,029.8,024.9,000.0,038.2,031.2,26.1,0000.0,0007.25,0003.76,0003.31
2023-06-07 04:04:00,SystemResetWarning,0830.4,5.00,000.00,029.7,025.2,000.0,038.2,030.9,26.3,0000.0,0007.82,0003.78,0003.31
2023-06-07 04:05:00,SystemResetWarning,0830.5,5.00,000.00,029.6,025.6,000.0,038.2,030.8,26.3,0000.0,0008.02,0003.76,0003.30
2023-06-07 04:06:00,SystemResetWarning,0830.5,5.00,000.00,029.5,026.0,000.0,038.2,030.8,26.5,0000.0,0008.00,0003.75,0003.31
2023-06-07 04:07:00,SystemResetWarning,0830.4,5.00,000.00,029.5,026.4,000.0,038.2,030.8,26.6,0000.0,0007.91,0003.72,0003.31
2023-06-07 04:08:00,SystemResetWarning,0830.4,4.99,000.00,029.5,026.7,000.0,038.1,030.8,26.4,0000.0,0007.90,0003.73,0003.32
2023-06-07 04:09:00,SystemResetWarning,0830.3,4.99,000.00,029.5,027.0,000.0,038.1,030.9,26.4,0000.0,0007.54,0003.75,0003.32
2023-06-07 04:10:00,SystemResetWarning,0830.3,5.00,000.00,029.5,027.3,000.0,038.1,030.9,26.5,0000.0,0007.59,0003.79,0003.33
2023-06-07 04:11:00,SystemResetWarning,0830.3,5.00,000.00,029.5,027.5,000.0,038.1,030.9,26.5,0000.0,0007.59,0003.77,0003.33
2023-06-07 04:12:00,SystemResetWarning,0830.3,5.00,000.00,029.5,027.6,000.0,038.1,031.0,26.1,0000.0,0007.58,0003.75,0003.32
2023-06-07 04:13:00,SystemResetWarning,0830.3,5.01,000.00,029.5,027.8,000.0,038.1,031.0,26.4,0000.0,0007.55,0003.74,0003.32
2023-06-07 04:14:00,SystemResetWarning,0830.3,4.99,000.00,029.6,027.9,000.0,038.1,031.0,26.4,0000.0,0007.59,0003.74,0003.32
2023-06-07 04:15:00,SystemResetWarning,0830.3,4.98,000.00,029.6,028.0,000.0,038.1,031.1,26.6,0000.0,0007.42,0003.75,0003.32
2023-06-07 04:16:00,SystemResetWarning,0830.3,5.00,000.00,029.6,028.0,000.0,038.1,031.1,26.5,0000.0,0007.39,0003.78,0003.34
2023-06-07 04:17:00,SystemResetWarning,0830.3,5.00,000.00,029.6,028.1,000.0,038.2,031.1,26.5,0000.0,0007.45,0003.81,0003.35
2023-06-07 04:18:00,SystemResetWarning,0830.3,5.01,000.00,029.6,028.2,000.0,038.2,031.1,26.5,0000.0,0007.47,0003.83,0003.36
2023-06-07 04:19:00,SystemResetWarning,0830.2,5.00,000.00,029.7,028.2,000.0,038.2,031.1,26.5,0000.0,0007.49,0003.84,0003.36
2023-06-07 04:20:00,SystemResetWarning,0830.2,5.00,000.00,029.7,028.3,000.0,038.2,031.2,26.5,0000.0,0007.50,0003.84,0003.37
2023-06-07 04:21:00,SystemResetWarning,0830.2,4.99,000.00,029.7,028.3,000.0,038.2,031.2,26.4,0000.0,0007.48,0003.83,0003.38
2023-06-07 04:22:00,SystemResetWarning,0830.2,4.99,000.00,029.7,028.3,000.0,038.2,031.2,26.4,0000.0,0007.40,0003.83,0003.39
2023-06-07 04:23:00,SystemResetWarning,0830.2,5.00,000.00,029.8,028.4,000.0,038.2,031.3,26.4,0000.0,0007.39,0003.83,0003.40
2023-06-07 04:24:00,SystemResetWarning,0830.2,5.00,000.00,029.8,028.4,000.0,038.3,031.3,26.4,0000.0,0007.84,0003.85,0003.42
2023-06-07 04:25:00,SystemResetWarning,0830.2,5.01,000.00,029.8,028.4,000.0,038.3,031.3,26.4,0000.0,0008.23,0003.88,0003.43
2023-06-07 04:26:00,SystemResetWarning,0830.1,5.00,000.00,029.8,028.4,000.0,038.3,031.3,26.4,0000.0,0008.11,0003.88,0003.44
2023-06-07 04:27:00,SystemResetWarning,0830.1,5.00,000.00,029.8,028.5,000.0,038.3,031.3,26.5,0000.0,0007.85,0003.92,0003.46
2023-06-07 04:28:00,SystemResetWarning,0830.1,5.01,000.00,029.9,028.5,000.0,038.3,031.4,26.5,0000.0,0008.01,0003.98,0003.47
2023-06-07 04:29:00,SystemResetWarning,0830.1,5.00,000.00,029.9,028.5,000.0,038.4,031.4,26.5,0000.0,0008.09,0003.99,0003.48
2023-06-07 04:30:00,SystemResetWarning,0830.1,5.00,000.00,029.9,028.5,000.0,038.4,031.4,26.4,0000.0,0008.04,0003.97,0003.47
2023-06-07 04:31:00,SystemResetWarning,0830.1,4.99,000.00,029.9,028.0,000.0,038.4,031.4,26.1,0000.0,0008.00,0003.98,0003.47
2023-06-07 04:32:00,SystemResetWarning,0830.0,4.99,000.00,029.9,025.7,000.0,038.3,031.3,26.0,0000.0,0007.98,0003.99,0003.48
2023-06-07 04:33:00,SystemResetWarning,0830.0,5.03,000.00,029.8,024.8,000.0,038.3,031.3,26.0,0000.0,0007.89,0003.97,0003.48
2023-06-07 04:34:00,SystemResetWarning,0830.0,4.98,000.00,029.7,024.9,000.0,038.2,030.9,25.7,0000.0,0008.77,0003.98,0003.47
2023-06-07 04:35:00,SystemResetWarning,0830.0,5.01,000.00,029.6,025.2,000.0,038.2,030.7,25.7,0000.0,0008.58,0003.98,0003.46
2023-06-07 04:36:00,SystemResetWarning,0830.0,5.01,000.00,029.5,025.7,000.0,038.2,030.6,25.6,0000.0,0008.76,0003.96,0003.45
2023-06-07 04:37:00,SystemResetWarning,0830.0,5.00,000.00,029.5,026.1,000.0,038.2,030.6,25.4,0000.0,0008.78,0003.97,0003.44
2023-06-07 04:38:00,SystemResetWarning,0830.0,5.00,000.00,029.5,026.4,000.0,038.2,030.7,25.3,0000.0,0008.82,0003.93,0003.42
2023-06-07 04:39:00,SystemResetWarning,0830.0,5.00,000.00,029.5,026.7,000.0,038.1,030.7,25.3,0000.0,0008.68,0003.86,0003.38
2023-06-07 04:40:00,SystemResetWarning,0830.0,4.99,000.00,029.5,027.0,000.0,038.1,030.8,25.3,0000.0,0008.54,0003.81,0003.35
2023-06-07 04:41:00,SystemResetWarning,0830.0,5.00,000.00,029.5,027.2,000.0,038.1,030.8,25.3,0000.0,0008.49,0003.79,0003.34
2023-06-07 04:42:00,SystemResetWarning,0830.0,5.01,000.00,029.5,027.4,000.0,038.1,030.9,25.6,0000.0,0008.46,0003.77,0003.33
2023-06-07 04:43:00,SystemResetWarning,0830.0,5.00,000.00,029.5,027.5,000.0,038.1,030.9,25.8,0000.0,0008.33,0003.72,0003.30
2023-06-07 04:44:00,SystemResetWarning,0830.0,4.99,000.00,029.5,027.6,000.0,038.1,030.9,25.8,0000.0,0008.48,0003.73,0003.29
2023-06-07 04:45:00,SystemResetWarning,0829.9,5.00,000.00,029.5,027.7,000.0,038.1,030.9,26.3,0000.0,0007.92,0003.73,0003.28
2023-06-07 04:46:00,SystemResetWarning,0829.9,4.99,000.00,029.5,027.8,000.0,038.1,031.0,26.1,0000.0,0007.51,0003.68,0003.27
2023-06-07 04:47:00,SystemResetWarning,0829.9,5.00,000.00,029.5,027.9,000.0,038.1,031.0,25.7,0000.0,0006.64,0003.70,0003.26
2023-06-07 04:48:00,SystemResetWarning,0829.9,5.01,000.00,029.5,027.9,000.0,038.1,031.0,25.5,0000.0,0006.58,0003.67,0003.25
2023-06-07 04:49:00,SystemResetWarning,0829.9,5.00,000.00,029.5,028.0,000.0,038.1,031.1,25.6,0000.0,0006.65,0003.67,0003.24
2023-06-07 04:50:00,SystemResetWarning,0829.9,5.00,000.00,029.6,028.0,000.0,038.1,031.1,25.8,0000.0,0006.73,0003.66,0003.24
2023-06-07 04:51:00,SystemResetWarning,0829.9,4.99,000.00,029.6,028.1,000.0,038.1,031.1,25.7,0000.0,0006.70,0003.65,0003.23
2023-06-07 04:52:00,SystemResetWarning,0829.8,4.99,000.00,029.6,028.1,000.0,038.1,031.1,25.7,0000.0,0007.10,0003.66,0003.21
2023-06-07 04:53:00,SystemResetWarning,0829.8,5.00,000.00,029.6,028.1,000.0,038.1,031.1,25.5,0000.0,0007.22,0003.66,0003.20
2023-06-07 04:54:00,SystemResetWarning,0829.8,5.01,000.00,029.6,028.1,000.0,038.2,031.1,25.3,0000.0,0007.28,0003.67,0003.20
2023-06-07 04:55:00,SystemResetWarning,0829.8,5.00,000.00,029.6,028.2,000.0,038.2,031.1,25.2,0000.0,0007.02,0003.64,0003.19
2023-06-07 04:56:00,SystemResetWarning,0829.8,5.00,000.00,029.7,028.2,000.0,038.2,031.2,25.2,0000.0,0007.60,0003.62,0003.16
2023-06-07 04:57:00,SystemResetWarning,0829.8,5.00,000.00,029.7,028.2,000.0,038.2,031.2,25.1,0000.0,0007.85,0003.64,0003.16
2023-06-07 04:58:00,SystemResetWarning,0829.8,5.00,000.00,029.7,028.2,000.0,038.2,031.2,25.1,0000.0,0007.76,0003.61,0003.15
2023-06-07 04:59:00,SystemResetWarning,0829.8,5.00,000.00,029.7,028.2,000.0,038.2,031.2,25.2,0000.0,0007.81,0003.59,0003.13
